Location: Alsip
(41.6689°N, 87.7387°W)
Time: 15:18:10
(UTC+00:00)

NOSS 3-4 (C) - Pass Details

Date: 14 July 2020
Orbit: 891 x 1321 km, 63.4° (Epoch: 12 July)

Event Time Altitude Azimuth Distance (km) Brightness Sun altitude
Rises 03:01:21 0° 324° (NW) 3,848 8.5 -14.8°
Reaches altitude 10° 03:03:53 10° 325° (NW) 2,949 7.4 -15.1°
Maximum altitude 03:10:59 89° 56° (ENE) 1,185 3.9 -16.0°
Enters shadow 03:16:11 23° 146° (SE) 2,342 4.8 -16.6°
